Location: Unspecified
(43.1763°N, 79.4719°W)
Time: 11:43:38
(UTC-04:00)

Cosmos 1674 - Visible Passes

Search period start: 26 April 2017 00:00
Search period end: 06 May 2017 00:00
Orbit: 499 x 522 km, 82.5° (Epoch: 24 April)

Date Brightness Start Highest point End Pass type
(mag) Time Alt. Az. Time Alt. Az. Time Alt. Az.
26 Apr 5.5 05:14:14 10° SE 05:17:02 20° E 05:19:52 10° NE visible
27 Apr 5.6 04:58:14 10° SE 05:00:37 16° E 05:03:00 10° NE visible
28 Apr 5.7 04:42:27 10° ESE 04:44:12 13° E 04:45:57 10° ENE visible
29 Apr 6.1 04:27:28 10° E 04:27:48 10° E 04:28:06 10° E visible
01 May 2.7 05:26:00 10° S 05:29:48 89° ESE 05:33:40 10° N visible
02 May 3.0 05:09:31 10° S 05:13:18 69° E 05:17:07 10° NNE visible
03 May 3.5 04:53:05 10° S 04:56:48 52° E 05:00:33 10° NNE visible
04 May 3.9 04:36:43 10° SSE 04:40:18 41° E 04:43:56 10° NNE visible
05 May 4.4 04:20:24 10° SSE 04:23:48 32° E 04:27:15 10° NNE visible
